Location: Unspecified
(0.0000°N, 0.0000°E)
Time: 20:08:31
(UTC+00:00)

deb Kosmos-1275 - Pass Details

Date: 07 March 2026
Orbit: 880 x 1009 km, 83.1° (Epoch: 21 April)

Event Time Altitude Azimuth Distance (km) Brightness Sun altitude
Exits shadow 02:59:52 12° 65° (ENE) 2,578 ? -47.5°
Maximum altitude 03:02:00 14° 87° (E) 2,423 ? -47.0°
Drops below altitude 10° 03:05:05 10° 117° (ESE) 2,699 ? -46.2°
Sets 03:08:53 0° 141° (SE) 3,619 ? -45.3°
